weather.gov     
National Weather Service

Terminal Aerodrome Forecast
NWS Homepage
This page is being discontinued on March 12, 2014.
The same data is available at this site. Please update your bookmarks.
Thank you, and we apologize for the inconvenience.
Please send an email to SR-SRH.Webmaster@noaa.gov with any concerns.


Current Version
Previous Version:    01  02  03  04  05  06  07  08  09  10  11  12  13  14  15  16  17  18  19  20  21  22  23  
[Printable]
778
FTUS43 KDMX 221120
TAFFOD
TAF
KFOD 221120Z 2212/2312 15009G14KT P6SM VCSH BKN060
     FM221500 16015G21KT P6SM SCT050 BKN200
     FM230000 17015KT P6SM SCT030 BKN180
     FM230300 17015KT 6SM -SHRA OVC030=




778
FTUS43 KDMX 221120
TAFFOD
TAF
KFOD 221120Z 2212/2312 15009G14KT P6SM VCSH BKN060
     FM221500 16015G21KT P6SM SCT050 BKN200
     FM230000 17015KT P6SM SCT030 BKN180
     FM230300 17015KT 6SM -SHRA OVC030=


U.S. Dept. of Commerce
NOAA National Weather Service
1325 East West Highway
Silver Spring, MD 20910
E-mail: w-nws.webmaster@noaa.gov
Page last modified: May 16, 2007
NATIONAL WEATHER SERVICE: for Safety, for Work, for Fun - FOR LIFE